DW1188 Weather Reports


Display with metric or nautical units.
time (UTC)temp
F
wind
direction
speed
MPH
gust
MPH
rain 1hr
in
rain 24hr
in
rain mn
in
humidity
%
barometer
mb
20260509162115 54 159 0.0 10.0 0.00 0.00 0.00 61 1022.7
20260509160929 54 144 1.0 16.0 0.00 0.00 0.00 61 1022.6
20260509155719 53 125 1.0 16.0 0.00 0.00 0.00 60 1022.5
20260509154529 53 136 2.0 16.0 0.00 0.00 0.00 61 1022.4
20260509153250 52 147 4.0 15.0 0.00 0.00 0.00 61 1022.3
20260509152034 52 120 3.0 15.0 0.00 0.00 0.00 61 1022.1
20260509150904 51 161 3.0 13.0 0.00 0.00 0.00 61 1022.1
20260509145733 51 130 3.0 13.0 0.00 0.00 0.00 62 1022.0
20260509144527 51 138 2.0 12.0 0.00 0.00 0.00 63 1021.8
20260509143342 50 167 1.0 0.0 0.00 0.00 0.00 63 1021.7
20260509142125 50 158 0.0 0.0 0.00 0.00 0.00 63 1021.7
20260509140951 49 142 0.0 9.0 0.00 0.00 0.00 63 1021.6
20260509135719 49 147 0.0 6.0 0.00 0.00 0.00 61 1021.5
20260509134447 49 157 0.0 8.0 0.00 0.00 0.00 61 1021.3
20260509133242 48 164 0.0 0.0 0.00 0.00 0.00 62 1021.3
20260509132110 48 180 0.0 0.0 0.00 0.00 0.00 63 1021.1
20260509130831 48 175 0.0 0.0 0.00 0.00 0.00 62 1021.0
20260509125621 48 138 0.0 0.0 0.00 0.00 0.00 62 1020.7
20260509124359 48 171 0.0 0.0 0.00 0.00 0.00 60 1020.5
20260509123219 48 163 0.0 0.0 0.00 0.00 0.00 59 1020.5
20260509122009 48 161 0.0 9.0 0.00 0.00 0.00 57 1020.4
20260509120739 48 153 0.0 11.0 0.00 0.00 0.00 57 1020.3
20260509115544 48 146 0.0 0.0 0.00 0.00 0.00 56 1020.2
20260509111612 49 158 0.0 0.0 0.00 0.00 0.00 54 1019.7
20260509110343 49 146 0.0 1.0 0.00 0.00 0.00 53 1019.6
20260509105132 50 148 0.0 12.0 0.00 0.00 0.00 52 1019.3
20260509103934 50 165 0.0 9.0 0.00 0.00 0.00 52 1019.2
20260509102742 50 165 2.0 14.0 0.00 0.00 0.00 52 1019.0
20260509101526 50 157 1.0 11.0 0.00 0.00 0.00 53 1018.7
20260509100357 50 140 0.0 0.0 0.00 0.00 0.00 56 1018.5
20260509095219 51 142 0.0 0.0 0.00 0.00 0.00 57 1018.4
20260509092617 51 132 0.0 0.0 0.00 0.00 0.00 57 1018.0
20260509091422 51 144 0.0 0.0 0.00 0.00 0.00 53 1018.1
20260509090202 52 130 1.0 3.0 0.00 0.00 0.00 51 1017.9
20260509084947 52 143 0.0 5.0 0.00 0.00 0.00 53 1017.7
20260509083809 52 140 0.0 3.0 0.00 0.00 0.00 54 1017.6
20260509082628 52 127 0.0 5.0 0.00 0.00 0.00 59 1017.5
20260509081454 52 137 0.0 0.0 0.00 0.00 0.00 60 1017.3
20260509080233 53 159 0.0 6.0 0.00 0.00 0.00 60 1017.2
20260509075015 53 140 0.0 4.0 0.00 0.00 0.00 60 1017.0
20260509072421 53 130 0.0 1.0 0.00 0.00 0.00 61 1016.8
20260509071201 53 143 0.0 0.0 0.00 0.00 0.00 61 1016.6
20260509065947 53 121 0.0 0.0 0.00 0.00 0.00 62 1016.5
20260509064720 53 118 0.0 0.0 0.00 0.00 0.00 63 1016.4
20260509063509 54 121 0.0 0.0 0.00 0.00 0.00 63 1016.2
20260509060855 55 135 0.0 0.0 0.00 0.00 0.00 60 1016.1
20260509055640 55 153 0.0 0.0 0.00 0.00 0.00 59 1015.9
20260509054409 55 166 0.0 0.0 0.00 0.00 0.00 60 1015.9
20260509051800 56 144 0.0 0.0 0.00 0.00 0.00 60 1015.9
20260509050611 56 139 0.0 6.0 0.00 0.00 0.00 58 1015.9
20260509044027 57 133 0.0 4.0 0.00 0.00 0.00 54 1015.7
20260509042805 59 134 0.0 0.0 0.00 0.00 0.00 50 1015.8
20260509041536 60 128 0.0 5.0 0.00 0.00 0.00 46 1015.7
20260509040358 60 146 0.0 7.0 0.00 0.00 0.00 44 1015.5
20260509035135 61 149 0.0 0.0 0.00 0.00 0.00 43 1015.6
20260509033902 61 142 0.0 8.0 0.00 0.00 0.00 42 1015.5
20260509032655 61 150 0.0 0.0 0.00 0.00 0.00 41 1015.3
20260509031437 62 144 0.0 0.0 0.00 0.00 0.00 41 1015.2
20260509030243 62 136 0.0 0.0 0.00 0.00 0.00 40 1015.1
20260509025017 63 147 0.0 0.0 0.00 0.00 0.00 40 1015.1
20260509023746 64 136 0.0 0.0 0.00 0.00 0.00 39 1015.1
20260509022614 65 171 0.0 0.0 0.00 0.00 0.00 38 1015.1
20260509020124 65 158 0.0 0.0 0.00 0.00 0.00 39 1015.1
20260509014915 65 183 0.0 0.0 0.00 0.00 0.00 40 1015.2
20260509013652 64 198 0.0 0.0 0.00 0.00 0.00 42 1015.3
20260509012413 64 196 1.0 12.0 0.00 0.00 0.00 40 1015.3
20260509011229 64 191 2.0 14.0 0.00 0.00 0.00 39 1015.4
20260509010052 65 179 4.0 14.0 0.00 0.00 0.00 37 1015.3
20260509004912 65 187 3.0 14.0 0.00 0.00 0.00 37 1015.2
20260509003659 65 211 2.0 12.0 0.00 0.00 0.00 37 1015.2
20260509002430 66 200 2.0 15.0 0.00 0.00 0.00 37 1015.3
20260508235910 67 222 2.0 12.0 0.00 0.00 0.00 34 1015.3
20260508234720 67 188 2.0 14.0 0.00 0.00 0.00 37 1015.3
20260508233454 67 175 0.0 1.0 0.00 0.00 0.00 38 1015.3
20260508230946 66 231 0.0 0.0 0.00 0.00 0.00 41 1015.5
20260508225734 65 186 3.0 14.0 0.00 0.00 0.00 45 1015.5
20260508224602 65 202 0.0 9.0 0.00 0.00 0.00 45 1015.4
20260508223423 65 159 3.0 6.0 0.00 0.00 0.00 46 1015.6
20260508220948 65 219 1.0 14.0 0.00 0.00 0.00 47 1015.4
20260508215818 65 153 2.0 12.0 0.00 0.00 0.00 46 1015.6
20260508214632 65 157 1.0 9.0 0.00 0.00 0.00 46 1015.7
20260508213436 65 166 1.0 13.0 0.00 0.00 0.00 45 1015.8
20260508212227 64 163 3.0 15.0 0.00 0.00 0.00 45 1015.8
20260508211047 64 173 2.0 13.0 0.00 0.00 0.00 46 1015.9
20260508204605 63 180 4.0 16.0 0.00 0.00 0.00 45 1016.0
20260508203342 63 177 3.0 16.0 0.00 0.00 0.00 43 1015.8
20260508202110 64 184 4.0 14.0 0.00 0.00 0.00 43 1015.9
20260508200849 64 203 1.0 11.0 0.00 0.00 0.00 44 1015.8
20260508195714 64 217 1.0 10.0 0.00 0.00 0.00 44 1015.8
20260508193248 63 161 4.0 19.0 0.00 0.00 0.00 42 1015.9
20260508192030 63 179 2.0 13.0 0.00 0.00 0.00 40 1015.8
20260508190756 63 146 5.0 13.0 0.00 0.00 0.00 38 1015.9
20260508185614 63 196 1.0 8.0 0.00 0.00 0.00 40 1016.1
20260508184351 63 192 3.0 14.0 0.00 0.00 0.00 37 1016.1
20260508183142 63 158 4.0 20.0 0.00 0.00 0.00 38 1016.0
20260508181929 63 190 6.0 20.0 0.00 0.00 0.00 38 1016.0
20260508180747 63 144 4.0 16.0 0.00 0.00 0.00 37 1016.0
20260508175519 62 140 0.0 3.0 0.00 0.00 0.00 43 1016.1
20260508174250 62 112 1.0 4.0 0.00 0.00 0.00 44 1016.1
20260508173032 62 176 0.0 11.0 0.00 0.00 0.00 42 1016.1
20260508171820 61 158 0.0 9.0 0.00 0.00 0.00 41 1016.2
20260508170650 61 165 1.0 12.0 0.00 0.00 0.00 39 1016.1
20260508164101 61 147 0.0 10.0 0.00 0.00 0.00 38 1016.2